Regional Weather Roundup
Issued by NWS

Home | Current Version | Previous Version | Graphics & Text | Print | Product List | Glossary On
Versions: 1 2 3 4 5 6 7 8 9 10 11 12 13 14 15 16 17 18 19 20 21 22 23 24 25 26 27 28 29 30 31 32 33 34 35 36 37 38 39 40 41 42 43 44 45 46 47 48 49 50
000
ASUS43 KDMX 190301
RWRIA

WEATHER ROUNDUP FOR IOWA
NATIONAL WEATHER SERVICE DES MOINES IA
900 PM CST WED JAN 18 2017

NOTE: "FAIR" INDICATES FEW OR NO CLOUDS BELOW 12,000 FEET WITH NO
SIGNIFICANT WEATHER AND/OR OBSTRUCTIONS TO VISIBILITY.

* - THESE STATIONS ARE NOT NWS STATIONS...THUS NOT UNDER NWS
QUALITY CONTROL.  THEY ALSO DO NOT REPORT WEATHER SUCH
AS PRECIPITATION OR FOG.

IAZ001>003-012>014-020>022-031>034-043>046-190400-
   NORTHWEST IOWA

CITY           SKY/WX    TMP DP  RH WIND       PRES   REMARKS
CARROLL *      CLEAR     36  36 100 S9        29.90S WCI  29
CHEROKEE *     CLEAR     37  36  98 S8        29.85S WCI  31
DENISON *      CLEAR     39  36  87 S6        29.88R WCI  35
LE MARS *      CLEAR     39  36  87 S12       29.83F WCI  32
ORANGE CITY *  CLEAR     37  36  93 S9        29.81F WCI  31
SHELDON *      CLEAR     37  37 100 S13       29.80F WCI  29
SIOUX CITY     CLEAR     40  36  86 SE9       29.84F WCI  34
SPENCER        CLEAR     37  35  92 S12       29.83F WCI  29
STORM LAKE *   CLEAR     36  34  93 S15       29.85F WCI  26
$$

IAZ055>058-069>071-079>083-090>094-190400-
   SOUTHWEST IOWA

CITY           SKY/WX    TMP DP  RH WIND       PRES   REMARKS
ATLANTIC *     CLEAR     37  36  93 S12G17    29.92S WCI  30
AUDUBON *      CLEAR     37  34  87 S10       29.92S WCI  30
CLARINDA *     CLEAR     37  37 100 S5        29.96S WCI  34
COUNCIL BLFS * CLEAR     39  37  93 S13       29.89F WCI  32
CRESTON *      FOG       34  34 100 S14       29.96S VSB 1/4 WCI  24
HARLAN  *      CLEAR     37  37 100 S6        29.94S WCI  33
LAMONI         FOG       36  36 100 S6        29.98S VSB 1/4 WCI  31
RED OAK *      CLEAR     37  36  93 S9        29.93S WCI  31
SHENANDOAH *   CLEAR     37  36  93 S13       29.93S WCI  29
$$

IAZ047>049-059>061-072>074-084-190400-
   CENTRAL IOWA

CITY           SKY/WX    TMP DP  RH WIND       PRES   REMARKS
AMES           CLEAR     33  33 100 SE7       29.94F WCI  27
ANKENY *       CLEAR     34  32  93 S8        29.97S WCI  27
BOONE *        CLEAR     34  34 100 S7        29.92F WCI  28
CHARITON *     FOG       34  34 100 S14       29.98S VSB 1/4 WCI  24
DES MOINES     FOG       35  34  96 S10       29.96F VSB 1/2 WCI  27
GRINNELL*      CLEAR     35  33  93 S12       29.98S WCI  26
KNOXVILLE *    FOG       34  34 100 S8        29.97S VSB 3/4 WCI  27
MARSHALLTOWN   CLEAR     35  33  92 S10       29.95F WCI  27
NEWTON *       PTCLDY    34  32  93 S9        29.97S FOG     WCI  26
PELLA *        CLOUDY    34  33  96 S8        30.00S FOG     WCI  27
PERRY *          N/A     35  35 100 SE8       29.93S WCI  28
$$

IAZ004>006-015-016-023>025-035-036-190400-
   NORTH CENTRAL IOWA

CITY           SKY/WX    TMP DP  RH WIND       PRES   REMARKS
ALGONA *       CLEAR     36  36 100 S14       29.86F WCI  27
CLARION *      CLEAR     36  36 100 S13       29.90F WCI  27
ESTHERVILLE    CLEAR     35  34  96 S14       29.83F WCI  26
FORT DODGE *   CLEAR     37  32  81 S10       29.90F WCI  30
MASON CITY     CLEAR     32  30  92 S9        29.90F WCI  24
FOREST CITY *    N/A     34  34 100 S8        29.89S WCI  27
WEBSTER CITY * CLEAR     36  36 100 S12       29.90S WCI  27
IOWA FALLS *     N/A     35  33  91 SE7       29.94S WCI  29
$$

IAZ007>011-017>019-026>030-037>042-050>054-066-190400-
   NORTHEAST IOWA

CITY           SKY/WX    TMP DP  RH WIND       PRES   REMARKS
CEDAR RAPIDS   CLEAR     33  32  96 S7        29.99F FOG     WCI  27
CHARLES CITY * MOCLDY    32  32 100 S12       29.93F FOG     WCI  23
CLINTON *      CLEAR     31  31 100 S8        30.03F FOG     WCI  23
DECORAH *      FOG       34  34 100 S8        29.94S VSB 1/2 WCI  27
DUBUQUE        CLEAR     32  31  96 S13       29.98F FOG     WCI  22
MONTICELLO *   CLEAR     34  32  93 CALM      29.99F
OELWEIN *      PTCLDY    34  34 100 S10       29.96F FOG     WCI  26
WATERLOO       CLEAR     34  32  92 S7        29.95F WCI  28
$$

IAZ064-065-067-068-078-190400-
   EAST CENTRAL IOWA

CITY           SKY/WX    TMP DP  RH WIND       PRES   REMARKS
DAVENPORT      CLEAR     28  27  96 SE7       30.03F FOG     WCI  21
IOWA CITY      FOG       30  29  96 CALM      30.03S VSB 3/4
MUSCATINE *    CLEAR     32  30  93 S3        30.04S FOG
QUAD CITIES    CLEAR     29  26  89 SE5       30.04S FOG     WCI  24
$$

IAZ062-063-075>077-085>089-095>099-190400-
   SOUTHEAST IOWA

CITY           SKY/WX    TMP DP  RH WIND       PRES   REMARKS
BURLINGTON     CLEAR     32  32 100 S5        30.03F FOG     WCI  27
FAIRFIELD *    CLOUDY    36  34  93 S8G15     30.02R FOG     WCI  29
FORT MADISON * CLEAR     36  34  93 S3        30.04F FOG
KEOKUK *       CLEAR     34  34 100 SE3       30.03F FOG
OSKALOOSA *    CLOUDY    33  32  98 S13       30.01R FOG     WCI  24
OTTUMWA        FOG       34  32  92 S14       30.01R VSB 1   WCI  25
WASHINGTON *   CLEAR     34  32  93 S9        30.03S FOG     WCI  26
$$

ABBREVIATIONS USED IN REMARKS
   TC - TEMPERATURES IN CELSIUS
  WCI - WIND CHILL INDEX
   HX - HEAT INDEX
  VSB - VISIBILITY
$$




USA.gov is the U.S. government's official web portal to all federal, state and local government web resources and services.